QPF
0.01 0.01 0.00 0.00 0.00 0.00 0.00 0.00 0.00 0.00 0.02 0.01 0.03 0.04 0.16 0.24 0.32 0.36 0.10 0.04 0.02 0.00 0.00 0.01 0.00 0.00 0.02 0.01 0.01 0.00 0.04 0.06 0.08 0.17 0.02 0.03 0.07 0.03 0.02 0.02 0.00 0.03 0.02
0.00 0.00 0.00 0.00 0.00 0.00 0.00 0.00 0.00 0.00 0.01 0.00 0.00 0.01 0.00 0.01 0.01 0.02 0.03 0.01 0.00 0.00 0.00 0.01 0.01 0.00 0.02 0.02 0.04 0.01 0.00 0.00 0.01 0.05 0.01 0.00 0.05 0.04 0.00 0.00 0.00 0.00 0.00
0.00 0.00 0.00 0.00 0.00 0.00 0.00 0.00 0.00 0.01 0.04 0.00 0.00 0.00 0.00 0.00 0.00 0.02 0.03 0.01 0.02 0.03 0.09 0.04 0.00 0.00 0.02 0.03 0.04 0.04 0.00 0.00 0.00 0.00 0.02 0.02 0.03 0.06 0.01 0.01 0.01 0.00 0.01
0.00 0.00 0.00 0.00 0.00 0.00 0.00 0.00 0.01 0.06 0.02 0.00 0.00 0.00 0.00 0.00 0.00 0.01 0.03 0.01 0.04 0.06 0.07 0.13 0.07 0.01 0.01 0.04 0.00 0.03 0.06 0.01 0.00 0.00 0.01 0.02 0.02 0.01 0.00 0.00 0.00 0.00 0.00
0.00 0.00 0.00 0.00 0.00 0.00 0.00 0.00 0.01 0.08 0.04 0.01 0.00 0.00 0.00 0.00 0.01 0.03 0.00 0.00 0.01 0.02 0.08 0.06 0.08 0.05 0.00 0.01 0.00 0.00 0.04 0.07 0.02 0.00 0.00 0.00 0.00 0.00 0.00 0.00 0.00 0.00 0.00
0.01 0.02 0.05 0.01 0.00 0.01 0.02 0.02 0.03 0.11 0.11 0.05 0.02 0.00 0.00 0.02 0.01 0.03 0.07 0.01 0.01 0.02 0.06 0.04 0.01 0.02 0.01 0.00 0.01 0.01 0.03 0.09 0.15 0.04 0.00 0.00 0.00 0.00 0.00 0.00 0.00 0.00 0.00
0.05 0.15 0.18 0.11 0.06 0.02 0.11 0.12 0.06 0.15 0.32 0.24 0.01 0.00 0.02 0.10 0.06 0.05 0.08 0.08 0.01 0.00 0.03 0.03 0.00 0.02 0.02 0.02 0.03 0.01 0.01 0.02 0.10 0.15 0.03 0.00 0.00 0.00 0.00 0.00 0.00 0.00 0.00
0.03 0.09 0.15 0.12 0.09 0.10 0.17 0.24 0.18 0.23 0.27 0.25 0.10 0.02 0.01 0.03 0.01 0.02 0.03 0.03 0.02 0.00 0.01 0.00 0.00 0.00 0.01 0.01 0.01 0.01 0.01 0.00 0.02 0.16 0.14 0.02 0.00 0.00 0.00 0.00 0.00 0.00 0.00
0.00 0.02 0.04 0.08 0.14 0.08 0.05 0.07 0.06 0.09 0.14 0.05 0.04 0.01 0.06 0.04 0.01 0.00 0.00 0.00 0.03 0.02 0.03 0.01 0.00 0.01 0.01 0.00 0.00 0.00 0.00 0.00 0.00 0.04 0.10 0.09 0.01 0.00 0.00 0.00 0.00 0.00 0.00
0.00 0.00 0.02 0.01 0.02 0.02 0.06 0.03 0.10 0.09 0.05 0.06 0.01 0.00 0.00 0.03 0.06 0.08 0.09 0.16 0.03 0.04 0.01 0.00 0.01 0.00 0.00 0.01 0.00 0.00 0.01 0.01 0.01 0.01 0.05 0.07 0.08 0.01 0.00 0.00 0.00 0.00 0.00
0.00 0.00 0.00 0.01 0.01 0.00 0.03 0.03 0.06 0.07 0.04 0.04 0.04 0.02 0.00 0.02 0.08 0.12 0.19 0.21 0.01 0.00 0.00 0.00 0.01 0.01 0.00 0.00 0.00 0.00 0.00 0.00 0.00 0.00 0.02 0.04 0.10 0.06 0.00 0.00 0.00 0.00 0.00
0.00 0.00 0.00 0.02 0.01 0.00 0.02 0.03 0.03 0.02 0.02 0.03 0.02 0.03 0.03 0.06 0.16 0.23 0.14 0.25 0.07 0.04 0.00 0.00 0.00 0.00 0.01 0.00 0.00 0.00 0.00 0.00 0.00 0.00 0.00 0.01 0.04 0.11 0.08 0.01 0.00 0.00 0.00
0.00 0.00 0.04 0.05 0.02 0.01 0.01 0.04 0.02 0.01 0.02 0.01 0.02 0.01 0.09 0.03 0.10 0.14 0.11 0.24 0.10 0.08 0.05 0.04 0.00 0.00 0.01 0.00 0.01 0.04 0.01 0.00 0.00 0.00 0.00 0.00 0.00 0.01 0.06 0.09 0.06 0.02 0.00
0.00 0.01 0.01 0.03 0.03 0.03 0.03 0.04 0.03 0.01 0.04 0.04 0.03 0.06 0.18 0.11 0.13 0.18 0.35 0.10 0.07 0.09 0.07 0.09 0.03 0.01 0.01 0.03 0.05 0.12 0.07 0.00 0.00 0.00 0.00 0.00 0.00 0.00 0.00 0.00 0.02 0.07 0.07
0.00 0.01 0.00 0.03 0.02 0.00 0.01 0.02 0.01 0.01 0.11 0.08 0.02 0.07 0.12 0.16 0.17 0.15 0.16 0.11 0.03 0.03 0.06 0.10 0.07 0.01 0.00 0.05 0.05 0.16 0.24 0.09 0.03 0.00 0.00 0.00 0.00 0.00 0.00 0.00 0.00 0.00 0.01
0.00 0.00 0.01 0.01 0.01 0.01 0.00 0.02 0.00 0.02 0.09 0.08 0.02 0.11 0.05 0.15 0.09 0.11 0.09 0.08 0.02 0.02 0.04 0.06 0.10 0.02 0.00 0.01 0.00 0.04 0.17 0.40 0.61 0.11 0.00 0.00 0.00 0.00 0.00 0.00 0.00 0.00 0.00
0.02 0.03 0.03 0.04 0.02 0.00 0.00 0.00 0.00 0.07 0.07 0.01 0.02 0.10 0.07 0.13 0.03 0.03 0.05 0.02 0.01 0.00 0.00 0.04 0.04 0.05 0.02 0.00 0.00 0.00 0.05 0.08 0.40 0.11 0.00 0.00 0.00 0.00 0.00 0.00 0.00 0.00 0.00
0.01 0.03 0.03 0.03 0.04 0.02 0.02 0.01 0.02 0.01 0.02 0.00 0.01 0.06 0.09 0.06 0.02 0.05 0.05 0.03 0.00 0.00 0.00 0.00 0.05 0.05 0.05 0.01 0.00 0.00 0.00 0.00 0.00 0.00 0.01 0.00 0.00 0.00 0.00 0.00 0.00 0.00 0.00
0.11 0.07 0.11 0.09 0.08 0.10 0.10 0.06 0.06 0.03 0.01 0.01 0.00 0.08 0.07 0.01 0.01 0.00 0.00 0.01 0.00 0.00 0.00 0.00 0.01 0.03 0.02 0.02 0.01 0.00 0.00 0.00 0.00 0.00 0.00 0.00 0.00 0.00 0.00 0.00 0.00 0.00 0.00
0.41 0.50 0.26 0.19 0.16 0.17 0.19 0.25 0.22 0.15 0.12 0.09 0.03 0.02 0.01 0.01 0.00 0.02 0.02 0.02 0.01 0.01 0.00 0.01 0.00 0.00 0.00 0.00 0.00 0.03 0.04 0.00 0.00 0.00 0.00 0.00 0.00 0.00 0.00 0.00 0.00 0.00 0.00
0.06 0.30 0.47 0.31 0.41 0.34 0.27 0.36 0.31 0.18 0.16 0.12 0.02 0.01 0.01 0.00 0.00 0.02 0.03 0.02 0.02 0.01 0.01 0.00 0.00 0.01 0.00 0.00 0.00 0.00 0.00 0.00 0.00 0.00 0.00 0.00 0.00 0.00 0.00 0.00 0.00 0.00 0.00
0.30 0.22 0.14 0.17 0.22 0.25 0.30 0.39 0.30 0.35 0.34 0.16 0.08 0.04 0.03 0.03 0.01 0.00 0.00 0.01 0.03 0.05 0.04 0.02 0.01 0.01 0.01 0.00 0.01 0.01 0.01 0.05 0.02 0.01 0.00 0.00 0.00 0.00 0.00 0.00 0.01 0.01 0.00
0.07 0.01 0.02 0.02 0.04 0.12 0.25 0.40 0.42 0.13 0.20 0.27 0.26 0.12 0.05 0.00 0.00 0.01 0.02 0.03 0.00 0.00 0.02 0.03 0.03 0.05 0.03 0.03 0.03 0.02 0.03 0.06 0.05 0.03 0.02 0.00 0.01 0.00 0.00 0.02 0.01 0.00 0.00
0.01 0.00 0.00 0.00 0.01 0.17 0.21 0.43 0.73 0.37 0.13 0.12 0.13 0.18 0.08 0.03 0.03 0.06 0.08 0.02 0.00 0.00 0.00 0.00 0.00 0.03 0.03 0.04 0.05 0.05 0.05 0.05 0.04 0.03 0.02 0.00 0.00 0.00 0.00 0.00 0.02 0.01 0.00
0.00 0.00 0.00 0.00 0.00 0.07 0.13 0.23 0.64 0.86 0.53 0.22 0.13 0.10 0.10 0.06 0.05 0.04 0.02 0.04 0.06 0.04 0.03 0.00 0.00 0.00 0.00 0.00 0.01 0.03 0.04 0.03 0.00 0.00 0.00 0.02 0.01 0.02 0.00 0.00 0.00 0.01 0.00
0.00 0.00 0.00 0.00 0.00 0.00 0.00 0.00 0.01 0.05 0.06 0.07 0.16 0.11 0.08 0.07 0.12 0.16 0.10 0.11 0.08 0.09 0.15 0.08 0.03 0.10 0.05 0.01 0.00 0.01 0.06 0.05 0.06 0.03 0.02 0.07 0.04 0.09 0.01 0.01 0.01 0.05 0.03
MSLP
1019.33 1018.95 1018.72 1018.78 1019.12 1019.47 1019.49 1020.12 1020.15 1020.22 1020.51 1020.00 1020.62 1021.05 1022.15 1023.11 1023.31 1023.27 1022.90 1022.70 1022.79 1022.43 1022.50 1022.69 1022.83 1022.96 1023.23 1023.47 1023.52 1023.53 1023.68 1023.89 1023.90 1023.75 1023.77 1023.87 1023.98 1024.04 1024.12 1024.32 1024.47 1024.66 1024.94
1018.66 1018.78 1018.77 1018.75 1018.92 1019.11 1019.15 1019.79 1020.26 1020.58 1021.00 1020.82 1021.19 1021.05 1021.36 1022.32 1022.65 1022.70 1022.68 1022.73 1022.58 1022.46 1022.61 1022.87 1022.91 1023.01 1023.14 1023.35 1023.49 1023.57 1023.68 1023.81 1023.99 1024.22 1024.09 1024.04 1024.16 1024.19 1024.25 1024.41 1024.59 1024.83 1025.05
1018.79 1019.01 1019.02 1019.06 1019.15 1019.11 1019.32 1019.90 1020.25 1020.60 1020.91 1020.94 1021.16 1021.39 1021.26 1021.59 1021.77 1022.17 1022.29 1022.36 1021.99 1022.03 1022.66 1022.98 1023.10 1023.18 1023.24 1023.26 1023.38 1023.58 1023.74 1023.91 1024.09 1024.27 1024.28 1024.32 1024.32 1024.42 1024.49 1024.59 1024.74 1024.96 1025.21
1018.71 1018.83 1019.01 1018.99 1018.92 1018.96 1019.05 1019.59 1019.99 1020.66 1020.93 1021.13 1021.34 1021.35 1021.34 1021.27 1021.26 1021.61 1021.78 1021.91 1022.01 1022.37 1022.94 1023.12 1023.12 1023.16 1023.24 1023.25 1023.31 1023.39 1023.72 1023.89 1024.12 1024.38 1024.46 1024.45 1024.51 1024.53 1024.68 1024.83 1025.07 1025.19 1025.41
1018.78 1018.87 1018.77 1018.98 1018.84 1019.05 1019.05 1019.24 1019.81 1020.32 1020.73 1021.07 1021.28 1021.33 1021.47 1021.56 1021.28 1021.35 1021.77 1021.85 1022.10 1022.35 1022.86 1023.24 1023.27 1023.10 1023.16 1023.22 1023.28 1023.47 1023.74 1023.85 1024.01 1024.34 1024.58 1024.66 1024.75 1024.80 1024.87 1024.98 1025.20 1025.39 1025.54
1018.51 1018.81 1018.80 1018.87 1018.89 1018.93 1019.26 1019.42 1019.70 1020.21 1020.47 1020.80 1021.09 1021.36 1021.26 1020.94 1020.80 1020.92 1021.60 1021.69 1021.89 1022.12 1022.47 1022.85 1022.97 1022.92 1023.15 1023.23 1023.16 1023.16 1023.52 1023.67 1023.82 1024.22 1024.52 1024.70 1024.77 1024.93 1025.03 1025.14 1025.28 1025.42 1025.53
1018.32 1018.95 1019.24 1019.18 1019.15 1019.08 1019.53 1019.89 1020.07 1020.30 1020.33 1020.23 1021.09 1021.12 1021.03 1020.68 1020.68 1020.75 1021.09 1021.48 1021.73 1021.92 1022.20 1022.50 1022.76 1022.73 1022.83 1023.00 1022.91 1022.96 1023.11 1023.45 1023.72 1024.00 1024.32 1024.53 1024.71 1024.80 1025.03 1025.20 1025.30 1025.42 1025.51
1018.14 1018.54 1018.88 1019.06 1019.06 1019.28 1019.29 1019.77 1019.97 1020.34 1020.39 1020.55 1020.89 1021.16 1021.03 1020.78 1020.49 1020.42 1020.62 1021.19 1021.22 1021.49 1021.79 1021.90 1022.12 1022.27 1022.43 1022.58 1022.66 1022.70 1022.91 1023.28 1023.57 1023.78 1024.10 1024.26 1024.47 1024.65 1024.87 1025.11 1025.25 1025.39 1025.50
1017.54 1017.90 1018.20 1018.37 1018.62 1018.76 1019.12 1019.39 1019.57 1019.81 1020.25 1020.35 1020.62 1020.74 1020.80 1020.42 1020.38 1020.15 1020.50 1020.80 1020.91 1021.04 1021.09 1021.24 1021.42 1021.73 1022.04 1022.36 1022.35 1022.30 1022.48 1022.57 1023.04 1023.41 1023.56 1023.86 1024.12 1024.47 1024.64 1024.94 1025.11 1025.32 1025.52
1016.88 1017.07 1017.50 1017.76 1017.99 1018.23 1018.63 1018.76 1019.04 1019.38 1019.82 1020.01 1020.23 1020.27 1020.45 1020.40 1020.34 1020.17 1020.18 1020.25 1020.37 1020.59 1020.78 1020.80 1020.79 1020.75 1021.09 1021.40 1021.72 1021.87 1021.85 1021.89 1022.29 1022.82 1023.08 1023.27 1023.61 1023.98 1024.32 1024.61 1024.87 1025.11 1025.39
1016.49 1016.57 1016.76 1017.02 1017.43 1017.58 1018.06 1018.31 1018.62 1018.92 1019.28 1019.39 1019.58 1019.58 1019.95 1019.90 1019.87 1019.93 1019.69 1019.99 1020.05 1019.87 1019.80 1019.82 1020.16 1020.26 1020.31 1020.66 1020.70 1020.86 1021.07 1021.30 1021.61 1022.07 1022.42 1022.64 1022.96 1023.43 1023.79 1024.10 1024.46 1024.74 1024.98
1015.97 1015.95 1016.14 1016.69 1016.90 1017.13 1017.49 1017.80 1018.02 1018.24 1018.60 1018.81 1018.83 1018.95 1018.98 1019.08 1019.07 1019.27 1019.39 1019.25 1019.33 1018.98 1018.74 1018.79 1019.01 1019.34 1019.55 1019.68 1019.87 1019.94 1020.03 1020.44 1020.86 1021.32 1021.76 1022.06 1022.39 1022.78 1023.23 1023.52 1023.87 1024.19 1024.48
1015.55 1015.51 1015.74 1016.30 1016.79 1016.89 1016.91 1017.08 1017.72 1018.02 1018.13 1018.29 1018.41 1018.42 1018.18 1018.20 1018.36 1018.60 1018.81 1018.61 1018.59 1018.39 1018.07 1018.08 1017.96 1018.46 1018.74 1018.83 1019.13 1019.24 1019.36 1019.60 1020.07 1020.71 1021.15 1021.53 1021.87 1022.21 1022.56 1022.93 1023.27 1023.52 1023.86
1014.55 1014.39 1015.14 1015.46 1015.95 1016.19 1016.62 1016.77 1017.42 1017.64 1017.74 1017.83 1017.91 1017.88 1017.86 1017.79 1017.82 1017.83 1017.84 1018.28 1018.33 1017.91 1017.63 1017.55 1017.58 1017.67 1017.88 1018.04 1018.35 1018.51 1018.87 1019.17 1019.45 1020.08 1020.70 1021.09 1021.40 1021.69 1022.00 1022.31 1022.60 1022.91 1023.20
1014.17 1014.28 1014.58 1015.03 1015.33 1015.65 1015.92 1016.55 1016.82 1017.11 1017.37 1017.56 1017.40 1017.28 1017.27 1017.14 1017.27 1017.11 1017.29 1017.59 1017.87 1017.69 1017.29 1017.03 1017.16 1016.86 1016.92 1017.21 1017.58 1017.95 1018.40 1018.69 1019.04 1019.39 1019.92 1020.56 1021.04 1021.29 1021.48 1021.73 1021.98 1022.23 1022.44
1013.71 1013.87 1014.35 1014.60 1014.85 1015.10 1015.48 1016.01 1016.33 1016.51 1016.78 1016.97 1016.73 1016.66 1016.60 1016.59 1016.56 1016.58 1016.76 1016.98 1017.18 1017.34 1017.18 1016.72 1016.78 1016.59 1016.46 1016.74 1017.05 1017.53 1017.84 1018.23 1018.26 1019.02 1019.18 1019.50 1020.02 1020.40 1020.65 1020.88 1021.12 1021.46 1021.77
1013.92 1013.88 1014.49 1014.76 1014.79 1014.91 1015.09 1015.41 1015.82 1016.04 1016.10 1016.06 1016.17 1016.24 1016.12 1016.03 1016.10 1015.88 1016.10 1016.28 1016.62 1016.87 1016.91 1016.34 1016.24 1016.14 1016.27 1016.35 1016.62 1017.05 1017.33 1017.83 1018.28 1018.11 1018.59 1018.77 1019.07 1019.45 1019.74 1020.01 1020.30 1020.58 1020.87
1013.90 1014.32 1014.53 1014.75 1015.06 1014.95 1014.82 1015.02 1015.40 1015.59 1015.66 1015.64 1015.51 1015.64 1015.49 1015.46 1015.55 1015.60 1015.63 1015.82 1015.88 1016.08 1016.47 1016.22 1016.05 1016.15 1016.16 1016.12 1016.33 1016.82 1016.77 1017.07 1017.63 1017.81 1018.08 1018.15 1018.18 1018.29 1018.60 1018.95 1019.22 1019.48 1019.83
1013.15 1014.20 1013.82 1014.02 1014.77 1014.51 1014.68 1014.51 1014.96 1015.00 1015.07 1015.09 1014.89 1014.89 1014.95 1015.00 1015.01 1015.01 1015.16 1015.32 1015.22 1015.47 1016.04 1016.30 1015.97 1015.68 1015.84 1015.86 1016.04 1016.33 1016.50 1016.33 1016.63 1017.03 1017.40 1017.66 1017.60 1017.77 1017.95 1018.12 1018.35 1018.67 1019.02
1013.53 1014.35 1014.14 1013.80 1014.57 1014.71 1014.63 1014.67 1015.20 1014.91 1014.47 1014.41 1014.44 1014.39 1014.36 1014.38 1014.36 1014.52 1014.73 1014.84 1015.07 1015.29 1015.46 1015.66 1015.71 1015.46 1015.42 1015.40 1015.57 1015.81 1016.03 1016.10 1016.00 1015.67 1015.99 1016.01 1016.38 1016.77 1017.14 1017.46 1017.74 1017.99 1018.27
1012.84 1013.99 1013.52 1013.98 1014.29 1014.31 1014.35 1014.79 1015.22 1015.52 1015.15 1014.07 1013.71 1013.73 1013.85 1013.83 1013.73 1013.83 1014.12 1014.13 1014.50 1014.78 1014.94 1015.13 1015.27 1015.12 1015.09 1015.07 1015.32 1015.17 1015.25 1015.26 1015.30 1015.30 1015.28 1015.41 1015.52 1015.91 1016.03 1016.38 1016.65 1016.88 1017.18
1012.94 1013.26 1013.59 1014.03 1014.50 1014.17 1013.67 1013.47 1013.90 1014.61 1014.72 1014.39 1013.40 1013.09 1013.05 1013.14 1013.05 1012.96 1013.18 1013.34 1013.78 1014.20 1014.41 1014.37 1014.38 1014.39 1014.15 1014.24 1014.34 1014.52 1014.46 1014.71 1014.95 1014.42 1014.74 1014.65 1014.66 1014.82 1014.64 1014.83 1014.86 1015.35 1015.69
1013.47 1013.58 1013.29 1013.37 1013.63 1013.30 1012.76 1012.53 1011.41 1012.83 1014.11 1013.62 1013.61 1012.29 1012.24 1012.13 1011.86 1011.86 1012.21 1012.86 1013.13 1013.32 1013.61 1013.67 1013.80 1013.74 1013.66 1013.63 1013.71 1013.90 1014.02 1013.95 1014.00 1013.71 1014.16 1014.23 1014.16 1014.14 1013.53 1013.41 1013.79 1014.39 1014.76
1013.04 1013.15 1012.88 1012.88 1013.21 1012.68 1011.78 1011.61 1011.20 1011.08 1012.55 1013.63 1013.71 1012.53 1011.54 1011.39 1011.13 1011.22 1011.63 1012.20 1012.40 1012.54 1012.70 1012.92 1013.00 1013.00 1013.21 1013.38 1013.43 1013.53 1013.72 1013.71 1013.66 1013.63 1013.73 1013.96 1013.43 1013.42 1012.94 1012.86 1012.88 1013.08 1013.74
1012.65 1012.52 1012.48 1012.47 1012.59 1012.11 1010.98 1011.10 1011.72 1012.41 1014.05 1013.00 1013.11 1011.79 1010.98 1010.74 1010.65 1010.54 1010.50 1010.96 1011.41 1011.52 1011.42 1011.80 1011.93 1012.15 1012.48 1012.65 1012.74 1013.10 1013.50 1013.72 1013.52 1013.02 1012.76 1013.11 1013.18 1013.01 1012.73 1012.54 1012.34 1012.68 1013.14
1011.70 1011.85 1011.92 1011.82 1011.79 1011.90 1011.51 1011.23 1011.64 1013.19 1013.95 1013.36 1011.34 1010.55 1010.24 1010.18 1009.47 1009.91 1010.52 1010.07 1009.99 1010.44 1010.99 1011.62 1012.11 1012.43 1012.57 1012.37 1012.62 1012.53 1012.78 1013.24 1013.32 1012.95 1012.29 1012.49 1012.73 1013.03 1012.97 1012.25 1012.15 1012.61 1013.19
Thickness
5786 5788 5789 5788 5785 5783 5783 5774 5773 5773 5770 5776 5770 5762 5750 5742 5742 5743 5744 5744 5742 5746 5748 5746 5744 5743 5741 5738 5739 5740 5739 5738 5739 5742 5742 5743 5744 5744 5744 5743 5742 5740 5738
5791 5790 5790 5790 5789 5786 5785 5780 5774 5769 5767 5766 5764 5766 5760 5748 5747 5746 5746 5743 5745 5746 5744 5742 5739 5738 5738 5736 5738 5739 5739 5738 5738 5737 5740 5741 5743 5744 5744 5743 5742 5741 5739
5790 5789 5789 5789 5788 5788 5786 5781 5777 5774 5771 5770 5768 5765 5763 5758 5755 5752 5752 5751 5751 5749 5742 5738 5736 5735 5736 5736 5736 5737 5737 5737 5736 5736 5737 5739 5740 5742 5743 5742 5742 5741 5740
5791 5791 5790 5791 5791 5791 5789 5785 5781 5775 5773 5769 5768 5768 5766 5765 5763 5761 5758 5757 5753 5747 5740 5735 5735 5735 5735 5734 5734 5734 5735 5734 5735 5734 5734 5736 5738 5740 5741 5741 5740 5740 5739
5792 5792 5793 5791 5792 5790 5790 5788 5785 5780 5776 5772 5769 5768 5766 5763 5761 5759 5755 5754 5751 5747 5739 5735 5732 5733 5734 5732 5731 5730 5731 5731 5733 5733 5731 5733 5734 5737 5739 5740 5739 5739 5738
5795 5793 5793 5792 5792 5792 5790 5787 5785 5782 5779 5775 5772 5768 5766 5766 5765 5763 5757 5755 5753 5747 5740 5738 5737 5736 5733 5730 5729 5731 5730 5731 5731 5731 5729 5730 5733 5734 5736 5737 5738 5739 5739
5797 5792 5790 5790 5791 5793 5788 5784 5782 5780 5776 5775 5770 5769 5767 5770 5767 5766 5762 5758 5755 5751 5746 5742 5739 5737 5734 5732 5732 5730 5731 5730 5730 5728 5729 5730 5731 5733 5734 5736 5737 5738 5740
5798 5795 5792 5792 5792 5791 5791 5786 5781 5777 5777 5775 5766 5763 5758 5764 5769 5769 5766 5761 5758 5755 5750 5747 5744 5741 5738 5735 5734 5731 5731 5729 5728 5728 5727 5730 5731 5732 5734 5735 5736 5737 5739
5801 5799 5797 5796 5794 5793 5790 5788 5787 5783 5775 5776 5774 5767 5757 5757 5765 5772 5767 5765 5761 5758 5757 5754 5751 5747 5743 5739 5738 5735 5733 5733 5730 5728 5728 5727 5729 5730 5733 5733 5735 5736 5737
5805 5804 5801 5799 5798 5795 5794 5792 5791 5787 5782 5775 5776 5774 5771 5769 5760 5757 5767 5766 5764 5761 5757 5756 5756 5754 5750 5746 5742 5740 5739 5738 5735 5732 5730 5730 5731 5732 5733 5733 5734 5734 5735
5807 5806 5804 5803 5801 5798 5795 5794 5791 5788 5784 5781 5778 5778 5772 5772 5772 5764 5759 5759 5764 5766 5765 5762 5758 5757 5755 5751 5749 5747 5745 5743 5740 5737 5735 5735 5735 5734 5734 5735 5734 5734 5735
5809 5808 5807 5803 5801 5799 5797 5794 5794 5791 5787 5785 5784 5782 5779 5773 5771 5768 5763 5765 5764 5770 5773 5771 5766 5763 5759 5758 5756 5753 5752 5748 5745 5741 5739 5738 5737 5737 5736 5736 5735 5735 5735
5808 5809 5807 5802 5798 5797 5797 5796 5792 5790 5789 5787 5785 5784 5786 5784 5782 5777 5771 5768 5766 5773 5774 5775 5774 5769 5765 5763 5761 5757 5756 5754 5749 5745 5742 5741 5740 5739 5738 5737 5736 5736 5736
5815 5819 5809 5803 5800 5798 5795 5794 5792 5790 5790 5788 5787 5787 5786 5785 5785 5783 5778 5770 5765 5769 5773 5773 5775 5772 5770 5768 5764 5760 5755 5755 5752 5748 5743 5741 5741 5740 5740 5739 5738 5738 5738
5817 5813 5811 5805 5801 5798 5797 5794 5792 5790 5789 5787 5788 5789 5788 5789 5788 5788 5785 5780 5770 5762 5767 5775 5771 5777 5775 5772 5768 5765 5758 5754 5753 5750 5748 5742 5740 5740 5742 5742 5741 5741 5741
5818 5815 5809 5806 5803 5800 5797 5793 5791 5790 5787 5787 5789 5789 5791 5791 5791 5790 5787 5782 5778 5771 5763 5777 5776 5778 5777 5774 5769 5764 5761 5756 5750 5749 5750 5748 5745 5744 5744 5746 5746 5745 5745
5809 5809 5804 5800 5798 5797 5796 5793 5790 5789 5787 5789 5789 5788 5789 5792 5789 5791 5789 5786 5780 5777 5769 5777 5782 5783 5780 5777 5771 5764 5760 5757 5753 5752 5751 5752 5751 5750 5749 5749 5748 5748 5748
5798 5796 5796 5793 5791 5792 5793 5790 5786 5788 5787 5786 5789 5789 5791 5792 5791 5789 5788 5786 5786 5783 5776 5773 5780 5779 5779 5779 5774 5765 5763 5760 5755 5754 5753 5754 5756 5756 5755 5754 5753 5753 5752
5797 5788 5794 5793 5786 5790 5790 5789 5786 5786 5788 5787 5789 5789 5790 5791 5790 5791 5790 5788 5789 5788 5781 5775 5777 5782 5780 5780 5775 5770 5767 5765 5760 5756 5756 5755 5757 5758 5758 5756 5757 5756 5754
5779 5774 5781 5792 5788 5787 5788 5783 5778 5782 5787 5789 5789 5790 5792 5793 5793 5792 5790 5788 5787 5785 5784 5780 5777 5779 5780 5781 5777 5770 5766 5769 5768 5768 5765 5766 5764 5763 5761 5759 5758 5758 5757
5791 5778 5779 5786 5780 5782 5781 5773 5772 5774 5778 5784 5789 5792 5793 5795 5798 5797 5793 5792 5789 5786 5785 5780 5776 5777 5777 5776 5771 5776 5772 5773 5773 5773 5773 5772 5771 5768 5767 5764 5763 5762 5762
5790 5787 5785 5783 5779 5784 5785 5786 5779 5772 5772 5779 5786 5792 5795 5797 5798 5799 5798 5796 5793 5786 5783 5783 5782 5779 5781 5782 5783 5779 5779 5773 5764 5780 5776 5776 5779 5778 5780 5778 5778 5774 5772
5781 5781 5785 5785 5783 5786 5789 5788 5797 5783 5772 5773 5777 5791 5795 5802 5803 5805 5800 5795 5792 5791 5789 5788 5784 5784 5782 5785 5785 5781 5779 5778 5777 5784 5779 5775 5782 5779 5786 5786 5784 5780 5777
5778 5778 5780 5782 5780 5785 5790 5789 5795 5792 5781 5772 5774 5785 5796 5801 5804 5803 5800 5795 5793 5793 5792 5791 5790 5789 5788 5787 5785 5783 5778 5779 5780 5780 5780 5768 5782 5781 5787 5788 5788 5787 5781
5773 5776 5776 5777 5778 5781 5790 5788 5782 5772 5757 5763 5770 5788 5797 5801 5803 5802 5803 5798 5795 5794 5798 5796 5796 5792 5788 5786 5784 5781 5772 5769 5768 5773 5782 5775 5776 5779 5783 5785 5788 5784 5780
5772 5772 5772 5774 5777 5776 5779 5780 5777 5764 5755 5762 5779 5787 5796 5800 5807 5800 5796 5800 5798 5797 5796 5794 5789 5786 5783 5782 5780 5781 5775 5764 5761 5762 5773 5767 5768 5769 5764 5779 5782 5777 5772